Track CELESTIS 16 (OTB) now! 10-day predictions CELESTIS 16 (OTB) is classified as:
1 44341U 19036C 26150.92995521 .00001483 00000-0 27490-3 0 9992 2 44341 23.9963 89.6400 0011054 173.8052 186.2578 14.57175525368853